This demonstration page uses our WeatherBlox Daily Observations layout. Learn more.

Left ArrowRight Arrow

47.50024, -111.30081

Hourly Observations for May 12, 2017

Temp ( °F °C ) Dew Point ( °F °C ) Humidity (%) Winds ( mph kmh ) Pressure ( in mb ) Visibility ( mi km ) Precip ( " mm )
12:53 am 00:53 Mostly Clear 60 15.6 41 5 50 50 S 12 19 29.77 1008 10 16 0.00 0.00
1:53 am 01:53 Clear 56 13.3 42 5.6 60 60 E 8 13 29.76 1008 10 16 0.00 0.00
2:53 am 02:53 Clear 56 13.3 42 5.6 60 60 SE 7 11 29.73 1007 10 16 0.00 0.00
3:53 am 03:53 Clear 58 14.4 41 5 53 53 SSE 14 22 29.71 1006 10 16 0.00 0.00
4:53 am 04:53 Clear 62 16.7 39 3.9 43 43 S 16 26 29.69 1005 10 16 0.00 0.00
5:53 am 05:53 Partly Cloudy 64 17.8 38 3.3 38 38 S 16 26 29.66 1004 10 16 0.00 0.00
6:53 am 06:53 Sunny 62 16.7 39 3.9 43 43 S 15 24 29.68 1005 10 16 0.00 0.00
7:53 am 07:53 Sunny 64 17.8 42 5.6 45 45 S 9 15 29.67 1005 10 16 0.00 0.00
8:53 am 08:53 Sunny 68 20 42 5.6 39 39 SSW 14 22 29.66 1005 10 16 0.00 0.00
9:53 am 09:53 Sunny 72 22.2 43 6.1 35 35 S 15 24 29.65 1004 10 16 0.00 0.00
10:53 am 10:53 Sunny 75 23.9 43 6.1 32 32 SSW 10 17 29.62 1003 10 16 0.00 0.00
11:53 am 11:53 Sunny 77 25 41 5 28 28 VRB 5 7 29.59 1002 10 16 0.00 0.00
12:53 pm 12:53 Sunny 80 26.7 40 4.4 24 24 SSW 15 24 29.53 1000 10 16 0.00 0.00
1:53 pm 13:53 Mostly Sunny 82 27.8 44 6.7 26 26 E 15 24 29.48 998 10 16 0.00 0.00
2:53 pm 14:53 Mostly Cloudy 76 24.4 44 6.7 32 32 VRB 6 9 29.48 998 10 16 0.00 0.00
3:18 pm 15:18 Partly Cloudy 76 24.4 48 8.9 37 37 NW 14 22 29.29 992 10 16 0.00 0.00
3:53 pm 15:53 Partly Cloudy 76 24.4 48 8.9 37 37 WNW 30 48 29.46 998 10 16 0.00 0.00
4:01 pm 16:01 Partly Cloudy 69 20.6 48 8.9 47 47 WNW 26 43 29.35 994 10 16 0.00 0.00
4:53 pm 16:53 Sunny 69 20.6 47 8.3 45 45 NW 24 39 29.46 998 10 16 0.00 0.03
5:53 pm 17:53 Mostly Sunny 64 17.8 48 8.9 56 56 N 22 35 29.49 999 10 16 0.00 0.00
6:53 pm 18:53 Sunny 64 17.8 47 8.3 54 54 NNW 21 33 29.54 1000 10 16 0.00 0.00
7:53 pm 19:53 Cloudy with Light Rain 56 13.3 46 7.8 70 70 N 17 28 29.61 1003 10 16 0.00 0.03
8:20 pm 20:20 Cloudy with Nearby Thunderstorms 54 12.2 45 7.2 72 72 NNW 18 30 29.62 1003 10 16 0.00 0.03
8:29 pm 20:29 Cloudy with Thunderstorms 53 11.7 46 7.8 77 77 NNW 16 26 29.65 1004 8 13 0.01 0.25
8:44 pm 20:44 Cloudy with Nearby Thunderstorms 51 10.6 46 7.8 83 83 NNW 13 20 29.65 1004 5 8 0.05 1.27
8:53 pm 20:53 Cloudy with Rain 50 10 46 7.8 86 86 NNW 17 28 29.63 1003 5 8 0.06 1.52
9:01 pm 21:01 Cloudy with Light Rain 50 10 46 7.8 86 86 NNW 17 28 29.65 1004 9 14 0.01 0.25
9:46 pm 21:46 Cloudy with Heavy Rain 48 8.9 44 6.7 86 86 WNW 15 24 29.71 1006 5 8 0.09 2.29
9:53 pm 21:53 Cloudy with Light Rain 48 8.9 43 6.1 83 83 WNW 20 31 29.70 1006 7 11 0.10 2.54
10:53 pm 22:53 Cloudy with Light Rain 43 6.1 39 3.9 86 86 W 24 39 29.72 1007 10 16 0.00 0.03
11:53 pm 23:53 Cloudy with Light Rain 42 5.6 38 3.3 85 85 WSW 14 22 29.76 1008 10 16 0.14 3.56

Powered by AerisWeather